[[{"header":{"parameterUnit":"m.s-1","parameterCategory":1,"la1":30.2991,"la2":30.254,"lo1":-89.0895,"lo2":-89.0444,"dy":0.0017,"dx":0.0017,"nx":28,"ny":28,"refTime":"2024-07-31T21:00:00:Z","depth":0,"parameterNumber":2,"parameterNumberName":"U-component_of_WINDS"},"data":[0,0,0,0,0,0,0,0,0,0,0,0,0,0,0,0,0,0,0,0,0,0,0,0,0,0,0,0,0,0,0,0,0,0,0,0,0,0,0,0,0,0,0,0,0,0,0,0,0,0,0,0,0,0,0,0,0,0,4.8023,4.8025,0,4.8167,4.8169,4.817,4.8082,4.8078,4.8074,4.807,4.822,4.8228,4.8235,0,0,0,0,0,0,0,0,0,0,0,0,0,4.7673,4.768,4.8023,4.8025,4.8027,4.8167,4.8169,4.8171,4.8083,4.8078,4.8073,4.8068,4.8217,4.8227,4.8236,0,0,0,0,0,0,0,0,0,0,0,0,0,4.7822,4.7682,4.8023,4.8,4.7999,4.8166,4.8169,4.8171,4.8084,4.8078,4.8071,4.8065,4.8214,4.8226,4.8237,4.8437,0,0,4.8274,4.8279,0,0,0,0,0,0,0,0,4.7814,4.7835,4.8001,4.8002,4.8001,4.81,4.81,4.826,4.8085,4.8052,4.807,4.8062,4.8185,4.8199,4.824,4.8444,4.845,4.8275,4.8282,4.8287,4.829,0,0,0,0,0,0,0,4.7804,4.7828,4.808,4.8004,4.8004,4.7982,4.7997,4.813,4.8152,4.8054,4.8048,4.8066,4.8184,4.8229,4.8243,4.8452,4.8274,4.8285,4.8292,4.8297,4.8823,4.883,0,0,0,0,0,0,4.7795,4.782,4.8076,4.8084,4.789,4.7994,4.801,4.8075,4.815,4.8156,4.8071,4.8062,4.8212,4.8229,4.8248,4.8484,4.8287,4.8298,4.8305,4.8817,4.8825,4.8832,0,0,0,0,0,0,4.7788,4.7818,4.807,4.7951,4.7981,4.8007,4.808,4.8081,4.8125,4.8163,4.8167,4.8113,4.8207,4.8231,4.8389,4.8488,4.8303,4.8314,4.8808,4.8819,4.8829,4.8959,0,0,0,0,0,0,4.7778,4.7816,4.7892,4.7953,4.7988,4.8209,4.8087,4.8088,4.8146,4.8134,4.8203,4.8209,4.8204,4.8372,4.8401,4.8501,4.8323,4.88,4.8813,4.8825,4.8946,4.8972,4.8995,0,0,0,0,0,4.7766,4.7924,4.7897,4.7928,4.8083,4.8215,4.8235,4.8225,4.8154,4.823,4.8254,4.8207,4.8473,4.8389,4.8421,4.8526,4.8793,4.8809,4.8824,4.8935,4.8967,4.8994,0,0,0,0,0,0,4.7876,4.7932,4.7902,4.8085,4.8146,4.82,4.8296,4.826,4.8344,4.8329,4.8315,4.8331,4.8496,4.8527,4.8433,4.8721,4.8622,4.8644,4.8695,4.8726,4.875,4.8738,4.8333,0,0,0,0,0,4.7921,4.8023,4.8067,4.8224,4.8256,4.8271,4.8328,4.8315,4.8378,4.8404,4.8439,4.8503,4.86,4.8665,4.8757,4.895,4.8963,4.9037,4.9062,4.9082,4.9101,4.9203,4.9236,4.8883,4.8883,4.8883,0,0,4.8016,4.806,4.8125,4.8247,4.8293,4.8398,4.8293,4.841,4.8488,4.8422,4.8572,4.8601,4.8671,4.8846,4.8926,4.8877,4.9202,4.9102,4.9117,4.9126,4.9222,4.9256,4.9285,4.8894,4.8892,4.889,0,0,4.8243,4.8287,4.8421,4.8468,4.8538,4.8547,4.8579,4.8639,4.8654,4.8805,4.8757,4.885,4.9019,4.9069,4.9117,4.9361,4.932,4.9392,4.952,4.9619,4.9647,4.9671,4.9756,4.9787,4.9411,4.9412,4.9412,0,4.8353,4.8509,4.8495,4.8615,4.8669,4.8613,4.8748,4.8795,4.8892,4.8931,4.8875,4.9084,4.9127,4.9312,4.9372,4.9413,4.9449,4.9383,4.9644,4.9669,4.9691,4.9772,4.9804,4.942,4.9419,4.9418,4.9417,0,4.8639,4.8749,4.8849,4.8942,4.9008,4.9135,4.914,4.9209,4.919,4.9204,4.9358,4.9407,4.9507,4.955,4.9534,4.9733,4.9701,4.9645,4.9545,4.9733,4.9809,4.984,4.9431,4.9429,4.9426,4.9424,0,0,4.894,4.9022,4.9059,4.9099,4.9171,4.9255,4.938,4.9476,4.9534,4.9603,4.9705,4.9849,4.9797,4.9851,4.984,4.9928,5.0115,4.9861,4.9862,4.9904,5.0335,5.0375,5.0411,5.0088,5.0094,5.0099,5.0328,0,4.9169,4.9385,4.9375,4.9577,4.9676,4.9623,4.9731,4.9787,4.9803,4.9891,4.9909,5.001,4.9935,4.9967,5.0051,5.0074,5.0201,5.0058,5.0183,5.0187,5.0165,5.0451,5.0494,5.0708,5.0358,5.0363,5.0366,0,4.9466,4.9542,4.9753,4.9808,4.985,4.9947,5.0033,5.0117,5.0179,5.0184,5.0244,5.0219,5.0344,5.0241,5.0412,5.0315,5.0366,5.0385,5.0393,5.0403,5.0287,5.0467,5.0777,5.0808,5.0413,5.041,5.0406,0,4.9661,4.9817,4.9963,4.9999,5.0068,5.0137,5.0169,5.0224,5.0282,5.0357,5.0394,5.0484,5.0533,5.0603,5.0602,5.0528,5.0775,5.0673,5.0782,5.0782,5.0836,5.0832,5.1156,5.0872,5.0871,5.0871,5.087,0,4.9917,5.0048,5.0051,5.0141,5.0285,5.0272,5.0416,5.044,5.049,5.0583,5.0544,5.0632,5.0625,5.0715,5.0715,5.0855,5.0879,5.0886,5.0884,5.0889,5.0887,5.092,5.0905,5.0879,5.0877,5.0876,5.0874,0,5.016,5.0167,5.0322,5.0373,5.0389,5.0493,5.0536,5.0621,5.0634,5.0752,5.0779,5.0799,5.0901,5.0907,5.1027,5.1026,5.1196,5.1179,5.1175,5.1171,5.128,5.1269,5.1635,5.1682,5.1369,5.1372,5.1374,0,5.0322,5.0421,5.0482,5.054,5.0576,5.0672,5.0729,5.0721,5.0783,5.0859,5.0934,5.1033,5.1111,5.1278,5.1303,5.1393,5.1377,5.1499,5.139,5.1391,5.1376,5.1369,5.1378,5.152,5.1523,5.1526,5.1528,0,5.0608,5.0606,5.0691,5.0777,5.0846,5.0914,5.0977,5.1027,5.1026,5.1097,5.1201,5.1262,5.1382,5.148,5.1567,5.16,5.1564,5.1562,5.1592,5.1597,5.1589,5.1592,5.1231,5.1554,5.1551,5.1549,5.1548,5.1547,5.0814,5.0898,5.0954,5.1049,5.1094,5.1153,5.1234,5.1256,5.1342,5.1438,5.1428,5.1543,5.16,5.1714,5.1753,5.1842,5.1801,5.1844,5.1855,5.1866,5.1876,5.1576,5.1859,5.1858,5.1857,5.1857,5.1856,0,5.1096,5.1128,5.1216,5.1304,5.1378,5.1337,5.1404,5.1469,5.157,5.1626,5.1703,5.1821,5.1915,5.1947,5.2038,5.2103,5.2089,5.2128,5.2122,5.2129,5.1909,5.1873,5.2137,5.2137,5.2137,5.2137,5.2137,5.2137,5.1252,5.1391,5.1396,5.1557,5.1589,5.17,5.1741,5.1795,5.1839,5.1972,5.205,5.2069,5.2116,5.2209,5.2294,5.23,5.2335,5.238,5.238,5.2174,5.2145,5.2118,5.2084,5.2388,5.2389,5.2592,5.2594,5.2596]},{"header":{"parameterUnit":"m.s-1","parameterCategory":1,"la1":30.2991,"la2":30.254,"lo1":-89.0895,"lo2":-89.0444,"dy":0.0017,"dx":0.0017,"nx":28,"ny":28,"refTime":"2024-07-31T21:00:00:Z","depth":0,"parameterNumber":3,"parameterNumberName":"V-component_of_WINDS"},"data":[0,0,0,0,0,0,0,0,0,0,0,0,0,0,0,0,0,0,0,0,0,0,0,0,0,0,0,0,0,0,0,0,0,0,0,0,0,0,0,0,0,0,0,0,0,0,0,0,0,0,0,0,0,0,0,0,0,0,1.3545,1.3545,0,1.3561,1.3562,1.3562,1.354,1.354,1.3539,1.3538,1.3556,1.3557,1.3558,0,0,0,0,0,0,0,0,0,0,0,0,0,1.3494,1.3495,1.3545,1.3545,1.3545,1.3561,1.3562,1.3562,1.354,1.354,1.3539,1.3538,1.3555,1.3557,1.3558,0,0,0,0,0,0,0,0,0,0,0,0,0,1.3514,1.3495,1.3545,1.3537,1.3536,1.3561,1.3562,1.3562,1.3541,1.3539,1.3538,1.3537,1.3555,1.3557,1.3558,1.3593,0,0,1.3564,1.3565,0,0,0,0,0,0,0,0,1.3513,1.3516,1.3538,1.3537,1.3537,1.3548,1.355,1.3572,1.3541,1.3539,1.3538,1.3537,1.3554,1.3556,1.3561,1.3594,1.3595,1.3564,1.3565,1.3566,1.3566,0,0,0,0,0,0,0,1.3511,1.3515,1.3551,1.3538,1.3537,1.3532,1.3533,1.3554,1.3553,1.3539,1.3537,1.354,1.3553,1.356,1.3562,1.3595,1.3564,1.3566,1.3567,1.3567,1.3655,1.3656,0,0,0,0,0,0,1.3511,1.3514,1.3551,1.3552,1.3521,1.3534,1.3535,1.3545,1.3553,1.3553,1.3541,1.3539,1.3557,1.356,1.3562,1.3602,1.3566,1.3567,1.3569,1.3653,1.3655,1.3656,0,0,0,0,0,0,1.351,1.3515,1.355,1.3533,1.3537,1.3536,1.3547,1.3546,1.3553,1.3554,1.3553,1.3547,1.3556,1.356,1.3585,1.3603,1.3568,1.357,1.3652,1.3654,1.3656,1.3683,0,0,0,0,0,0,1.3509,1.3514,1.3528,1.3533,1.3538,1.3573,1.3548,1.3547,1.3556,1.3553,1.356,1.356,1.3556,1.3582,1.3587,1.3604,1.3571,1.365,1.3653,1.3655,1.3681,1.3686,1.369,0,0,0,0,0,1.3507,1.3535,1.3529,1.3533,1.3554,1.3574,1.3577,1.3571,1.3557,1.357,1.3571,1.356,1.36,1.3585,1.359,1.3608,1.3649,1.3652,1.3655,1.3679,1.3685,1.369,0,0,0,0,0,0,1.3533,1.3536,1.3528,1.356,1.3567,1.357,1.3587,1.3578,1.359,1.3587,1.3579,1.3581,1.3608,1.3611,1.3594,1.3641,1.3622,1.3626,1.3639,1.3645,1.3649,1.3648,1.3573,0,0,0,0,0,1.3542,1.3558,1.356,1.3587,1.3591,1.3588,1.3597,1.3592,1.3599,1.3602,1.3604,1.3612,1.3626,1.3635,1.3649,1.3681,1.3682,1.3696,1.37,1.3704,1.3708,1.3724,1.373,1.3665,1.3665,1.3665,0,0,1.3562,1.3565,1.3576,1.3592,1.3597,1.3613,1.3591,1.361,1.3621,1.3605,1.3628,1.363,1.3638,1.3667,1.368,1.367,1.3726,1.3708,1.3711,1.3712,1.3727,1.3733,1.3739,1.3667,1.3667,1.3667,0,0,1.3606,1.361,1.3633,1.3638,1.3645,1.3643,1.3648,1.3653,1.3653,1.3677,1.3664,1.3678,1.3703,1.3709,1.3715,1.3759,1.3749,1.3763,1.3788,1.3803,1.3808,1.3813,1.3828,1.3833,1.3767,1.3767,1.3767,0,1.3629,1.3653,1.3645,1.3664,1.3671,1.3656,1.3678,1.3684,1.3695,1.37,1.3689,1.3719,1.3723,1.3752,1.3763,1.3769,1.3774,1.3762,1.3808,1.3813,1.3817,1.3831,1.3836,1.3768,1.3768,1.3768,1.3768,0,1.3681,1.3697,1.3714,1.3725,1.3734,1.3755,1.375,1.376,1.3753,1.3752,1.3776,1.378,1.3793,1.38,1.3794,1.3828,1.3821,1.3809,1.379,1.3825,1.3838,1.3843,1.3771,1.377,1.377,1.3769,0,0,1.3742,1.3747,1.3754,1.3757,1.3764,1.3776,1.3796,1.3808,1.3816,1.3824,1.384,1.386,1.3849,1.3856,1.385,1.3864,1.3897,1.385,1.385,1.3858,1.3933,1.3942,1.3948,1.3891,1.3892,1.3892,1.3932,0,1.3785,1.3818,1.3811,1.3844,1.3858,1.3843,1.386,1.3865,1.3864,1.3876,1.3876,1.389,1.3874,1.3878,1.3891,1.3891,1.3912,1.3888,1.3905,1.3905,1.3903,1.3955,1.3965,1.4002,1.3938,1.3938,1.3939,0,1.384,1.3849,1.3883,1.3885,1.3891,1.3906,1.3916,1.3928,1.3933,1.3931,1.3938,1.393,1.3948,1.3928,1.3953,1.3937,1.3943,1.3944,1.3945,1.3946,1.3924,1.3957,1.4014,1.402,1.3947,1.3947,1.3946,0,1.3881,1.3901,1.3923,1.3927,1.3931,1.3942,1.3944,1.3948,1.3955,1.3964,1.3968,1.3979,1.3985,1.3994,1.3988,1.3974,1.4014,1.3994,1.4012,1.4012,1.4021,1.4021,1.408,1.4026,1.4026,1.4026,1.4026,0,1.3929,1.395,1.3941,1.3955,1.3978,1.3969,1.3992,1.3992,1.3996,1.4009,1.3997,1.4009,1.4002,1.4013,1.4009,1.403,1.4033,1.4032,1.403,1.4033,1.4033,1.4036,1.4033,1.4027,1.4027,1.4027,1.4027,0,1.3978,1.3973,1.3997,1.3997,1.3998,1.4015,1.4015,1.4028,1.4025,1.4042,1.4046,1.4042,1.4055,1.405,1.4065,1.4062,1.4088,1.4084,1.4086,1.4085,1.4103,1.4101,1.4166,1.4174,1.4116,1.4117,1.4117,0,1.4009,1.4025,1.4027,1.4034,1.4037,1.405,1.4057,1.4049,1.4056,1.4063,1.4074,1.4086,1.4095,1.4117,1.4116,1.4126,1.4121,1.4143,1.4123,1.4124,1.4121,1.412,1.4121,1.4147,1.4148,1.4149,1.4149,0,1.4065,1.4061,1.4071,1.408,1.4089,1.4096,1.4102,1.4109,1.4101,1.411,1.4123,1.413,1.4144,1.4155,1.4165,1.4166,1.4156,1.4155,1.416,1.4162,1.4163,1.4162,1.4097,1.4154,1.4154,1.4153,1.4153,1.4153,1.4105,1.4118,1.412,1.4132,1.4135,1.4141,1.4152,1.415,1.4161,1.4171,1.4166,1.418,1.4184,1.4195,1.4198,1.421,1.4201,1.4208,1.421,1.4211,1.4213,1.4161,1.4211,1.4211,1.4211,1.4211,1.4211,0,1.4159,1.416,1.417,1.4178,1.4187,1.4176,1.4182,1.419,1.4203,1.4207,1.4215,1.423,1.4241,1.424,1.425,1.4259,1.4254,1.4261,1.426,1.4261,1.4221,1.4216,1.4265,1.4265,1.4265,1.4265,1.4265,1.4265,1.4188,1.4208,1.4205,1.4226,1.4226,1.424,1.4244,1.4249,1.4252,1.4268,1.4277,1.4276,1.4277,1.4287,1.4296,1.4296,1.43,1.4309,1.4306,1.4269,1.4264,1.4259,1.4253,1.431,1.431,1.4345,1.4345,1.4345]}]]